Tracking 21676 objects as of 29-Oct-2020
HD Live streaming from Space Station
objects crossing your sky now

MOLNIYA 3-41

Track MOLNIYA 3-41 now!
MOLNIYA 3-41 is classified as:


NORAD ID: 21706
Int'l Code: 1991-065A
Perigee: 2,213.4 km
Apogee: 37,505.4 km
Inclination: 64.1 °
Period: 704.6 minutes
Semi major axis: 26230 km
RCS: 14.2786 m2 (large)
Launch date: September 17, 1991
Source: Commonwealth of Independent States (former USSR) (CIS)
Launch site: PLESETSK MISSILE AND SPACE COMPLEX (PKMTR)
aabbcc
Your satellite tracking list
Your tracking list is empty




NASA's NSSDC Master Catalog

Two Line Element Set (TLE):
1 21706U 91065A   20301.91422068 +.00000117 +00000-0 +00000-0 0  9994
2 21706 064.1433 228.0276 6727316 263.0351 022.3256 02.04359995214708
Source of the keplerian elements: AFSPC